Syracuse, NY

7:05 AM EDT on March 30, 2017 (GMT -0400)
Syracuse Hancock International

Weather History for KSYR - June, 2014

Change the Weather History Date:

Thursday, June 19, 2014

  Actual Average Record
Temperature  
Mean Temperature 67 °F 68 °F  
Max Temperature 77 °F 79 °F 95 °F (1995)
Min Temperature 56 °F 57 °F 40 °F (1946)
Degree Days  
Heating Degree Days 0 1  
Month to date heating degree days 18 50  
Since 1 June heating degree days 18 50  
Since 1 July heating degree days 7074 6640  
Cooling Degree Days 2 4  
Month to date cooling degree days 72 56  
Year to date cooling degree days 128 86  
Since 1 June cooling degree days 72 56  
Growing Degree Days 17 (Base 50)    
Moisture  
Dew Point 52 °F    
Average Humidity 58    
Maximum Humidity 93    
Minimum Humidity 23    
Precipitation  
Precipitation 0.00 in 0.11 in 1.46 in (2007)
Month to date precipitation 1.28 2.08  
Year to date precipitation 18.66 16.01  
Snow  
Snow 0.00 in 0.00 in 0.00 in (2002)
Month to date snowfall 0.0 0.0  
Since 1 June snowfall 0.0 0.0  
Since 1 July snowfall 132.0 123.8  
Snow Depth 0.00 in    
Sea Level Pressure  
Sea Level Pressure 30.05 in    
Wind  
Wind Speed 7 mph (NW)    
Max Wind Speed 16 mph    
Max Gust Speed 23 mph    
Visibility 10 miles    
Events      
T = Trace of Precipitation, MM = Missing Value Source: NWS Daily Summary

Daily Weather History Graph

Daily Weather History Graph

Search for Another Location

Airport or City:

Trip Planner

Search our weather history database for the weather conditions in past years. The results will help you decide how hot, cold, wet, or windy it might be!

Date:

Astronomy

Jun. 19, 2014 Rise Set
Actual Time 5:24 AM EDT 8:47 PM EDT
Civil Twilight 4:49 AM EDT 9:22 PM EDT
Nautical Twilight 4:02 AM EDT 10:08 PM EDT
Astronomical Twilight 3:05 AM EDT 11:06 PM EDT
Moon 12:39 AM EDT (6/19) 1:03 PM EDT (6/19)
Length of Visible Light 16h 33m
Length of Day
15h 22m
Waning Gibbous, 51% of the Moon is Illuminated
Jun 19
Waning Gibbous
Jun 19
Last Quarter
Jun 27
New
Jul 5
First Quarter
Jul 12
Full

Hourly Weather History & Observations

Time (EDT) Temp. Dew Point Humidity Pressure Visibility Wind Dir Wind Speed Gust Speed Precip Events Conditions
12:54 AM 66.0 °F 62.1 °F 87% 29.99 in 10.0 mi Calm Calm - N/A   Overcast
1:54 AM 66.0 °F 62.1 °F 87% 30.00 in 10.0 mi Calm Calm - N/A   Overcast
2:54 AM 64.9 °F 62.1 °F 90% 29.99 in 10.0 mi Calm Calm - N/A   Overcast
3:54 AM 64.9 °F 62.1 °F 90% 29.99 in 8.0 mi North 3.5 mph - N/A   Overcast
4:54 AM 63.0 °F 61.0 °F 93% 30.00 in 7.0 mi NW 4.6 mph - N/A   Overcast
5:54 AM 62.6 °F 60.8 °F 94% 30.03 in 5.0 mi NW 3.5 mph - N/A   Overcast
6:54 AM 63.0 °F 60.1 °F 90% 30.04 in 7.0 mi NNW 5.8 mph - N/A   Overcast
7:54 AM 64.9 °F 60.1 °F 84% 30.06 in 10.0 mi NW 4.6 mph - N/A   Overcast
8:54 AM 69.1 °F 60.1 °F 73% 30.07 in 10.0 mi Variable 5.8 mph - N/A   Overcast
9:54 AM 72.0 °F 59.0 °F 64% 30.07 in 10.0 mi Variable 5.8 mph - N/A   Scattered Clouds
10:54 AM 73.9 °F 57.9 °F 57% 30.07 in 10.0 mi NW 6.9 mph - N/A   Scattered Clouds
11:54 AM 75.9 °F 55.0 °F 48% 30.06 in 10.0 mi NW 8.1 mph - N/A   Scattered Clouds
12:54 PM 75.9 °F 51.1 °F 42% 30.06 in 10.0 mi NNW 10.4 mph 19.6 mph N/A   Scattered Clouds
1:54 PM 75.9 °F 46.9 °F 36% 30.06 in 10.0 mi NNW 13.8 mph - N/A   Scattered Clouds
2:54 PM 75.9 °F 36.0 °F 23% 30.06 in 10.0 mi NNW 13.8 mph 19.6 mph N/A   Scattered Clouds
3:54 PM 75.0 °F 45.0 °F 34% 30.07 in 10.0 mi NNW 11.5 mph - N/A   Partly Cloudy
4:54 PM 75.0 °F 46.0 °F 36% 30.07 in 10.0 mi NW 12.7 mph - N/A   Scattered Clouds
5:54 PM 73.0 °F 44.1 °F 35% 30.06 in 10.0 mi NNW 15.0 mph - N/A   Scattered Clouds
6:54 PM 72.0 °F 39.0 °F 30% 30.06 in 10.0 mi NW 12.7 mph 18.4 mph N/A   Scattered Clouds
7:54 PM 70.0 °F 39.9 °F 33% 30.06 in 10.0 mi NW 8.1 mph - N/A   Scattered Clouds
8:54 PM 64.9 °F 43.0 °F 45% 30.06 in 10.0 mi NW 4.6 mph - N/A   Partly Cloudy
9:54 PM 61.0 °F 46.0 °F 58% 30.08 in 10.0 mi Calm Calm - N/A   Partly Cloudy
10:54 PM 57.9 °F 46.9 °F 67% 30.09 in 10.0 mi WNW 4.6 mph - N/A   Clear
11:54 PM 57.0 °F 46.0 °F 67% 30.10 in 10.0 mi West 4.6 mph - N/A   Clear